Location: Barrio La Estaci�n
(40.5892°N, 4.3617°W)
Time: 14:45:26
(UTC+00:00)

Daily predictions for brighter satellites

Satellite Brightness Start Highest point End
(mag) Time Altitude Azimuth Time Altitude Azimuth Time Altitude Azimuth
FALCON 9 R/B 4.3 18:44:55 10° SW 18:50:57 40° SSE 19:19:45 10° ESE
STARLINK-1114 3.7 19:06:05 10° NW 19:10:14 73° NE 19:14:21 10° ESE
USA 186 3.3 19:09:09 10° ESE 19:11:42 20° ENE 19:14:12 10° NNE
Cosmos 1626 Rocket 3.6 19:09:18 10° N 19:13:38 62° E 19:17:55 10° SSE
STARLINK-1130 (DARKSAT) 3.6 19:11:04 10° NW 19:15:13 80° NE 19:19:22 10° SE
Cosmos 1603 3.8 19:11:02 10° S 19:16:30 55° ESE 19:21:58 10° NNE
FREGAT/IRIS 3.8 19:16:30 10° ESE 19:18:36 20° ENE 19:20:43 10° NNE
Cosmos 1758 3.3 19:16:06 10° S 19:20:12 86° E 19:24:19 10° N
STARLINK-1084 3.6 19:16:03 10° NW 19:20:12 87° NE 19:24:21 10° SE
Ariane Rocket 3.3 19:15:31 10° SE 19:20:23 49° ENE 19:25:15 10° N
Resurs 01 Rocket 3.7 19:22:54 10° ENE 19:23:50 11° ENE 19:24:46 10° NE
ATLAS 2AS CENTAUR R/B 4.0 19:17:25 10° NNW 19:23:54 29° NE 19:29:58 10° E
Cosmos 1602 Rocket 3.6 19:19:54 10° N 19:24:20 63° E 19:28:39 10° SSE
HJ-1C 3.3 19:21:41 10° SSE 19:25:02 82° ENE 19:28:25 10° N
STARLINK-1098 3.6 19:21:02 10° NW 19:25:12 85° SW 19:29:20 10° SE
Meteor 1-21 Rocket 4.4 19:21:20 10° N 19:26:43 50° ENE 19:32:05 10° SSE
USA 234 4.1 19:22:35 10° ENE 19:27:55 26° SE 19:33:14 10° S
Cosmos 2315 Rocket 4.2 19:21:58 10° S 19:28:18 84° W 19:34:42 10° N
H-2A R/B 3.9 19:14:32 10° W 19:28:52 26° SW 19:32:52 10° SSE
SL-4 R/B 1.5 19:25:47 10° SW 19:29:08 60° SE 19:32:31 10° ENE
Aureole 3 3.8 19:25:42 10° S 19:30:03 68° E 19:35:41 10° NNE
STARLINK-1123 3.7 19:26:01 10° NW 19:30:10 78° SW 19:34:18 10° SE
GEOS 3 Rocket 3.7 19:25:11 10° SE 19:30:19 84° SW 19:35:33 10° NW
SeaSat 1 3.7 19:28:39 10° NNE 19:33:22 46° WNW 19:38:02 10° SW
Cosmos 1626 3.6 19:30:36 10° NNW 19:34:06 41° W 19:37:36 10° SSW
ATLAS 5 CENTAUR R/B 2.9 19:32:10 10° SSE 19:34:47 17° ESE 19:37:31 10° ENE
STARLINK-1097 3.8 19:30:59 10° NW 19:35:06 71° SW 19:39:05 11° SE
CZ-4 R/B 3.9 19:32:20 10° SSW 19:35:26 23° W 19:38:32 10° NW
Cosmos 1709 Rocket 4.4 19:32:19 10° NNW 19:38:26 68° W 19:44:28 10° S
IRIDIUM 103 4.5 19:34:15 10° N 19:39:21 53° E 19:44:26 10° SSE
STARLINK-1099 3.9 19:35:59 10° WNW 19:40:05 64° SW 19:43:52 12° SE
Cosmos 1825 Rocket 4.2 19:37:15 10° N 19:41:18 35° ENE 19:45:01 12° SE
Cosmos 292 Rocket 3.7 19:39:52 10° NNW 19:44:42 88° ENE 19:49:31 10° SSE
STARLINK-1104 4.1 19:40:59 10° WNW 19:45:03 58° SW 19:48:39 13° SE
SL-8 R/B 3.8 19:40:52 10° WNW 19:45:39 68° NNE 19:49:09 18° ESE
Cosmos 614 Rocket 4.5 19:41:20 10° SSE 19:46:04 36° ESE 19:50:50 10° NE
Cosmos 1703 4.3 19:43:17 10° NNE 19:46:43 27° ENE 19:48:40 18° ESE
Abrixas rocket 4.4 19:47:34 10° NW 19:49:42 18° N 19:51:51 10° NE
SPOT 3 Rocket 4.1 19:45:41 13° SE 19:49:56 39° ENE 19:54:44 10° N
STARLINK-1144 4.2 19:45:59 10° WNW 19:50:02 52° SW 19:53:27 14° SSE
Cosmos 1943 Rocket 2.4 19:45:24 10° NNW 19:50:56 72° WSW 19:56:29 10° SSE
IRS-1A Rocket 4.3 19:46:07 10° SSE 19:51:48 89° ENE 19:57:38 10° NNW
Cosmos 2084 Rocket 4.4 19:48:32 10° NW 19:52:51 48° WSW 19:57:08 10° SSE
Cosmos 2369 Rocket 2.2 19:47:11 10° NNW 19:52:54 88° ENE 19:58:33 10° SSE
COSMOS 2455 4.5 19:49:18 10° N 19:53:31 19° NE 19:56:39 13° ENE
Cosmos 1758 Rocket 3.5 19:49:52 10° N 19:54:10 59° E 19:58:24 10° SSE
Cosmos 2074 Rocket 4.0 19:48:15 10° N 19:54:30 63° E 20:00:44 10° SSE
STARLINK-1103 4.4 19:50:59 10° WNW 19:54:58 47° SW 19:58:13 14° SSE
SL-24 R/B 4.1 19:52:01 10° NNE 19:55:53 41° E 19:59:25 10° S
Cosmos 1953 2.6 19:51:59 10° SSW 19:55:54 68° W 19:59:53 10° N
Cosmos 1437 2.6 19:53:28 10° N 19:56:28 55° E 19:58:05 23° SSE
Cosmos 407 Rocket 3.9 19:52:42 10° SSE 19:57:26 38° ESE 20:02:09 10° NE
IRIDIUM 106 4.2 19:52:25 10° N 19:57:40 79° E 20:02:51 10° S
CZ-2C R/B 3.9 19:53:18 10° NNE 19:57:53 50° E 20:02:22 10° S
Cosmos 2228 3.1 19:54:04 10° S 19:58:12 52° E 20:02:25 10° NNE
Cosmos 1606 Rocket 3.6 19:56:28 10° S 20:00:48 60° E 20:05:11 10° NNE
Cosmos 1908 3.5 19:57:46 10° SSE 20:01:26 44° E 20:05:08 10° NNE
Cosmos 1953 Rocket 4.1 19:57:29 10° N 20:01:43 40° ENE 20:04:01 23° SE
Cosmos 1992 Rocket 4.2 19:58:18 10° NNW 20:03:31 73° WSW 20:08:40 10° S
Cosmos 1818 3.6 19:59:41 10° SSW 20:05:07 83° WNW 20:10:36 10° NNE
SL-08 RB Rocket 3.6 20:06:01 14° SSE 20:09:53 74° ENE 20:14:28 10° N
Aureole 2 Rocket 4.1 20:08:14 10° NW 20:11:23 33° WSW 20:14:25 10° SSW
Cosmos 2263 4.1 20:07:24 10° NNW 20:13:03 88° WSW 20:17:24 17° SSE
Cosmos 1943 3.7 20:08:59 10° SW 20:14:35 64° WNW 20:20:15 10° NNE
Meteor 1-11 4.4 20:10:57 10° N 20:16:34 51° ENE 20:19:35 26° SE
CZ-2C R/B 3.3 20:12:29 10° S 20:17:24 62° W 20:22:09 10° NNW
Cosmos 1461 4.4 20:15:05 10° N 20:18:50 25° NE 20:19:51 23° ENE
H-2A R/B 3.0 20:21:41 10° S 20:26:44 46° W 20:31:41 10° NNW
Cosmos 1023 Rocket 4.5 20:24:09 10° S 20:29:13 56° ESE 20:34:16 10° NNE
Cosmos 2327 Rocket 4.5 20:25:16 10° N 20:31:37 85° E 20:36:48 17° S
Resurs 1-3 3.5 20:33:01 39° SSE 20:34:36 82° ENE 20:39:01 10° N
Cosmos 1726 4.2 20:32:09 10° SW 20:35:26 29° WNW 20:38:45 10° NNW
Cosmos 1656 Rocket 3.6 20:32:46 10° NNW 20:38:26 83° WSW 20:41:04 33° SSE
STARLINK-60 3.7 20:36:53 10° WSW 20:40:06 53° NW 20:40:39 46° N
CZ-2C R/B 2.4 20:35:38 10° NNE 20:40:50 82° ESE 20:46:02 10° S
MetOp-A 4.2 20:37:45 24° S 20:41:06 79° WSW 20:46:30 10° NNW
Aureole 1 Rocket 4.3 20:33:13 10° SSW 20:41:10 83° WNW 20:47:32 10° NNE
SJ-6B 4.3 20:37:39 11° SSW 20:41:12 37° W 20:45:04 10° NNW
USA 186 4.5 20:40:04 10° SW 20:42:35 19° W 20:45:03 10° NW
ISS -1.6 20:40:25 10° W 20:42:55 19° SW 20:43:16 19° SW
NOSS 3-4 (A) 3.9 20:36:10 10° NNW 20:43:14 68° NE 20:46:22 38° ESE
NOSS 3-4 (C) 3.9 20:36:16 10° NNW 20:43:20 67° NE 20:46:27 38° ESE
ARGOS 4.3 20:38:21 10° SSW 20:43:24 41° W 20:48:28 10° NNW
Cosmos 2341 Rocket 4.2 20:38:39 10° N 20:44:55 54° E 20:46:39 42° SE
Terra 4.1 20:55:01 12° NE 20:55:01 12° NE 20:55:55 10° NNE
Cosmos 2058 Rocket 3.4 20:53:43 25° SSW 20:56:18 65° W 21:00:47 10° N
Resurs 01 Rocket 1.6 20:59:15 70° SSW 20:59:40 77° WSW 21:04:05 10° NNW
Cosmos 2218 Rocket 4.3 20:56:27 10° N 21:02:23 45° ENE 21:02:26 45° ENE
MOS 1 Rocket 4.1 20:58:22 10° N 21:03:40 59° WNW 21:08:59 10° SSW
USA 245 4.2 21:08:37 61° E 21:08:46 62° ENE 21:14:50 10° N
SL-4 R/B 3.7 21:06:08 10° WNW 21:08:56 23° NNW 21:09:22 23° N
Cosmos 1340 Rocket 4.0 21:08:17 28° SW 21:09:52 41° WNW 21:13:43 10° N
Cosmos 1140 Rocket 3.9 21:05:28 10° SSW 21:10:37 62° WNW 21:15:45 10° NNE
USA 234 3.2 21:04:46 10° NE 21:11:19 82° NW 21:17:52 10° SW
Spot 2 Rocket 3.5 21:11:44 66° NE 21:11:44 66° NE 21:16:30 10° N
Cosmos 2181 Rocket 3.8 21:12:15 63° SSE 21:13:10 74° E 21:19:22 10° N
ATLAS 2AS CENTAUR R/B 2.8 21:08:10 10° NW 21:15:39 75° WSW 21:17:27 53° S
ATLAS 5 CENTAUR R/B 4.4 21:08:49 10° SSW 21:50:39 - ESE 21:14:55 28° SSE
ATLAS 5 CENTAUR R/B 2.5 21:14:54 10° WSW 21:18:52 45° NW 21:23:16 10° NNE
Cosmos 962 Rocket 4.5 21:12:47 10° N 21:18:56 75° W 21:20:29 52° SSW
SL-8 Rocket 3.8 21:16:37 10° N 21:22:57 78° E 21:23:20 75° ESE
In-Cosmos 22 Rocket 4.4 21:26:59 10° N 21:32:08 66° NNE 21:32:08 66° NNE
Cosmos 2366 rocket 3.9 21:28:25 10° N 21:34:06 72° NE 21:34:06 72° NE
Cosmos 921 Rocket 4.4 21:31:15 10° NNW 21:34:01 36° NW 21:34:01 36° NW
COSMOS 2455 2.8 21:34:10 10° NNW 21:39:49 78° NW 21:39:49 78° NW
Cosmos 1959 Rocket 4.4 21:36:55 10° N 21:42:56 81° NNW 21:42:56 81° NNW
ERS-1 Rocket 4.1 21:47:39 39° N 21:47:39 39° N 21:50:48 10° N
SPOT 1/Viking Rocket 4.4 21:55:08 48° NNW 21:55:08 48° NNW 21:58:55 10° NNW
Cosmos 1697 Rocket 4.3 22:14:12 10° N 22:17:11 27° NNE 22:17:11 27° NNE
CZ-4C R/B 4.1 22:15:55 10° NNW 22:22:03 30° NE 22:22:18 30° NE
Terra 4.1 22:33:55 21° NNW 22:33:55 21° NNW 22:35:33 10° NNW
Cosmos 1980 Rocket 4.2 22:42:39 10° N 22:44:56 22° N 22:44:56 22° N
